2019 TOA Stage 2 Standings

2019 TOA Stage 2 Standings

DivisionRankBibNameTeamGC+/-
Open Men16Michael Bouwkamp0:39:20Race Leader
Open Men210Justin NeffBeadedstream0:43:0003:40.2
Open Men3140Richard StevensGoldstream Sports0:43:4604:26.2
Open Men4152James BassetteGoldstream Sports0:44:5305:32.6
Open Men5143Zac ColeCRC Racing0:45:0005:39.4
Open Women129Sheryl LoanKaladi-Trek0:44:12Race Leader
Open Women242Amber StullChain Reaction0:48:4704:35.6
Open Women3158Camille Ala0:49:3105:19.6
Open Women547Stacey Kolstad0:50:0205:50.1
Open Women6155Briana LowenCRC Racing0:50:0505:53.3
Open Women7159Holly Martinson0:52:0207:50.9
Open Women870Christine Flanum0:53:5809:46.1
Novice Men1136Javier Festa0:51:43Race Leader
Novice Men2141Mathew Burt0:59:4908:06.5
Novice Men3222David Duclos1:09:3717:54.2
Novice Men4139Terrance Pearson1:36:2144:38.6
Intermediate Men1142Donovan CampDon Solo0:43:55Race Leader
Intermediate Men2117David StanfieldTeam CPR0:44:2900:33.7
Intermediate Men3163Erik Swanson0:44:3700:41.4
Intermediate Men443Tom SchultzZipRacing0:46:1102:15.7
Intermediate Men5103James FredrickRevolution Racing0:46:2302:27.6
Intermediate Men6148Alexander Kubitz0:46:5002:54.5
Intermediate Men7200Constantine Savostin0:49:1105:15.8
Intermediate Men88David HenkeZipRacing0:49:4305:47.9
Intermediate Men9145Mathew Melarvie0:53:3009:35.2
Intermediate Men10164Erik Carlson0:56:4012:45.1
Intermediate Men11149Lee WeilkertUSAF1:08:4724:51.7
Intermediate/45 + Women1153Cadence StullChain Reaction0:52:21Race Leader
Intermediate/45 + Women292Stacy Steinberg0:52:3000:08.2
Intermediate/45 + Women3175Joanne AllanChain Reaction0:53:0900:47.5
Intermediate/45 + Women4225Kristin Riall0:56:0303:41.2
Intermediate/45 + Women5113Rose GarnerSpeedway0:58:2406:02.5
Intermediate/45 + Women6154Ashley MattsonBeadedstream1:02:2910:07.3
Intermediate/45 + Women7172Natasha GrahamBeadedstream1:05:3713:15.4
Intermediate/45 + Women8236Emma HaddixBeadedstream1:05:5013:28.9
Master 45 + Men164Erik OstbergKaladi-Trek0:43:16Race Leader
Master 45 + Men269Tom PeichelKaladi-Trek0:44:4601:30.1
Master 45 + Men354Michael WheatallWTF0:44:4801:32.1
Master 45 + Men4147Patrick CrabbQuick & Dirty0:45:2102:05.4
Master 45 + Men580Matt TabinorKaladi-Trek0:46:0802:52.2
Master 45 + Men656Tim Lawrence0:46:4003:24.2
Master 45 + Men775Bill FlemingKaladi-Trek0:47:5604:40.5
Master 45 + Men867Jeffrey Thurston0:51:5008:34.0
Master 45 + Men867Jeffrey Thurston0:51:5008:34.0
Master 45 + Men9102Jonathan Schultz0:54:1911:03.6
Novice / 60+ Women1238Heidi Swanson0:44:07Race Leader
Novice / 60+ Women2261Robin Cope0:47:0803:01.1
Novice / 60+ Women3214Sanjana Greenhill0:47:1303:05.8
Novice / 60+ Women4229Karen Lewis0:47:5403:47.1
Novice / 60+ Women5260Debra KinnBeadedstream0:49:4305:35.6
Novice / 60+ Women6106Cara FoxBeadedstream0:55:3211:25.2
Novice / 60+ Women7210Kristin Amstrup0:56:1012:03.1
Novice / 60+ Women8211Nina Wladkowski0:58:0914:02.4
Novice Men1136Javier Festa0:51:43Race Leader
Novice Men2141Mathew Burt0:59:4912:36.6
Novice Men3222David Duclos1:09:3722:24.3
Novice Men4139Terrance Pearson1:36:2149:08.7
Master 60 + Men1166Matt Claman0:52:11Race Leader
Master 60 + Men276Tol Fishburn0:54:5002:38.4
Master 60 + Men5146Jim Kubitz1:03:5411:42.6
Master 60 + Men4144Rick Pollock1:08:2016:08.3